Location: Sungai Bunut
(2.6333°N, 113.7333°E)
Time: 07:04:33
(UTC+00:00)

S-56A Canister/Altair - Pass Details

Date: 03 December 2023
Orbit: 639 x 2488 km, 38.9° (Epoch: 04 March)

Event Time Altitude Azimuth Distance (km) Brightness Sun altitude
Rises 15:07:15 0° 271° (W) 5,102 11.9 -64.5°
Reaches altitude 10° 15:11:31 10° 257° (WSW) 4,401 11.5 -65.2°
Maximum altitude 15:20:17 22° 212° (SSW) 3,960 11.2 -66.4°
Drops below altitude 10° 15:30:29 10° 168° (SSE) 5,130 11.8 -67.7°
Sets 15:36:11 0° 154° (SSE) 6,157 12.3 -68.4°
